Home > Weather > Jaén > Past weeks

Flag for Spain Past Weather in Jaén, Spain — Yesterday and Last 2 Weeks

Now
93 °F

Passing clouds.


Feels Like: 90 °F
Forecast: 70 / 96 °F
Wind: 3 mph from North

Location: Granada / Aeropuerto

Current Time: Jun 27, 2016 at 8:31:35 PM

Latest Report: Jun 27, 2016 at 8:00 PM


Visibility: N/A

Pressure: 30.04 "Hg (28.21 "Hg at 565m altitude)

Humidity: 21%

Dew Point: 48 °F

Location of JaénLocation

Past Weather in Jaén — Graph

°F

Jaén Temperature Yesterday

Maximum temperature yesterday: 91 °F (at 3:00 PM)
Minimum temperature yesterday: 61 °F (at 5:30 AM)
Average temperature yesterday: 78 °F

High & Low Weather Summary for the Past Weeks

 TemperatureHumidityPressure
High100 °F (Jun 24, 3:00 PM)82% (Jun 17, 6:00 AM)30.30 "Hg (Jun 17, 6:00 AM)
Low50 °F (Jun 17, 7:30 AM)9% (Jun 24, 3:30 PM)29.77 "Hg (Jun 15, 7:30 PM)
Average78 °F34%30.05 "Hg
* Reported Jun 12 7:00 PM — Jun 27 7:30 PM, Jaén, Weather by CustomWeather, © 2016

Note: Actual official high and low records may vary slightly from our data, if they occured in-between our weather recording intervals... More about our weather records

Advertising

Jaén Weather History for the Previous 24 Hours

Scroll right to see more
 ConditionsComfort  
Time TempWeatherWind HumidityBarometerVisibility
7:30 PM
Mon, Jun 27
93 °FPassing clouds.5 mph20%30.04 "HgN/A
7:00 PM93 °FPassing clouds.7 mph21%30.04 "HgN/A
6:30 PM93 °FPassing clouds.10 mph21%30.04 "HgN/A
6:00 PM95 °FPassing clouds.13 mph20%30.04 "HgN/A
5:30 PM95 °FPassing clouds.14 mph20%30.04 "HgN/A
5:00 PM95 °FPassing clouds.10 mph20%30.07 "HgN/A
4:30 PM97 °FPassing clouds.14 mph18%30.07 "HgN/A
4:00 PM95 °FPassing clouds.6 mph25%30.07 "HgN/A
3:30 PM93 °FPassing clouds.9 mph28%30.07 "HgN/A
3:00 PM93 °FPassing clouds.13 mph30%30.09 "HgN/A
2:30 PM91 °FPassing clouds.5 mph28%30.09 "HgN/A
2:00 PM91 °FPassing clouds.2 mph30%30.09 "HgN/A
1:30 PM90 °FSunny.2 mph29%30.09 "Hg10 mi
1:00 PM90 °FSunny.2 mph29%30.09 "Hg10 mi
12:30 PM86 °FSunny.2 mph38%30.12 "Hg10 mi
12:00 PM82 °FSunny.1 mph45%30.12 "Hg10 mi
11:30 AM81 °FSunny.2 mph48%30.12 "Hg10 mi
11:00 AM81 °FSunny.1 mph48%30.12 "Hg10 mi
10:30 AM77 °FSunny.1 mph54%30.12 "Hg10 mi
10:00 AM75 °FSunny.No wind57%30.12 "Hg10 mi
9:30 AM73 °FSunny.No wind57%30.12 "Hg10 mi
9:00 AM70 °FSunny.No wind64%30.12 "Hg10 mi
8:30 AM68 °FSunny.1 mph64%30.12 "Hg10 mi
8:00 AM66 °FSunny.2 mph68%30.12 "Hg10 mi
7:30 AM64 °FClear.1 mph68%30.09 "Hg10 mi
7:00 AM64 °FClear.2 mph68%30.09 "Hg10 mi
6:30 AM64 °FClear.1 mph73%30.09 "Hg10 mi
6:00 AM64 °FClear.No wind68%30.09 "Hg10 mi
4:30 AM66 °FMild.3 mph64%30.09 "HgN/A
12:00 AM75 °FClear.6 mph57%30.09 "Hg10 mi
11:30 PM
Sun, Jun 26
77 °FPassing clouds.6 mph39%30.09 "HgN/A
11:00 PM79 °FPassing clouds.3 mph37%30.07 "HgN/A
10:30 PM81 °FSunny.5 mph32%30.07 "Hg10 mi
10:00 PM82 °FSunny.7 mph30%30.04 "Hg10 mi
9:30 PM84 °FSunny.7 mph27%30.01 "Hg10 mi
9:00 PM86 °FPassing clouds.7 mph27%30.01 "HgN/A
8:30 PM88 °FPassing clouds.8 mph24%30.01 "HgN/A
8:00 PM90 °FPassing clouds.9 mph22%29.98 "HgN/A
Weather by CustomWeather, © 2016

See weather overviewHow to use our weather pages